Location: Newark
(42.3314°N, 83.0458°W)
Time: 18:42:43
(UTC+00:00)

Envisat - Visible Passes

Search period start: 20 August 2019 00:00
Search period end: 30 August 2019 00:00
Orbit: 764 x 766 km, 98.1° (Epoch: 20 August)

Date Brightness Start Highest point End Pass type
(mag) Time Alt. Az. Time Alt. Az. Time Alt. Az.
21 Aug 6.0 01:17:57 10° WSW 01:20:11 13° W 01:22:26 10° WNW visible
24 Aug 5.9 01:05:39 10° SW 01:08:48 16° W 01:11:58 10° NW visible
27 Aug 5.7 00:53:40 10° SW 00:57:25 21° W 01:01:13 10° NW visible
29 Aug 6.2 01:21:34 10° WSW 01:23:15 12° W 01:24:56 10° WNW visible
